GW7626 Weather Reports


Display with metric or nautical units.
time (UTC)temp
F
wind
direction
speed
MPH
gust
MPH
rain 1hr
in
rain 24hr
in
rain mn
in
humidity
%
barometer
mb
20260906124931 80 140 0.0 0.0 0.00 0.00 0.00 80 1013.2
20260906124428 80 276 0.0 0.0 0.00 0.00 0.00 82 1013.1
20260906123927 78 276 0.0 0.0 0.00 0.00 0.00 87 1013.0
20260906123426 77 276 0.0 0.0 0.00 0.00 0.00 87 1012.9
20260906122921 76 276 0.0 0.0 0.00 0.00 0.00 88 1012.9
20260906122421 76 276 0.0 0.0 0.00 0.00 0.00 90 1013.0
20260906121919 76 276 0.0 0.0 0.00 0.00 0.00 91 1012.5
20260906121414 75 276 0.0 0.0 0.00 0.00 0.00 92 1012.6
20260906120911 75 276 0.0 0.0 0.00 0.00 0.00 93 1012.6
20260906120406 74 276 0.0 0.0 0.00 0.00 0.00 93 1012.5
20260906115902 74 276 0.0 0.0 0.00 0.00 0.00 93 1012.7
20260906115357 74 276 0.0 0.0 0.00 0.00 0.00 93 1012.4
20260906114856 74 276 0.0 0.0 0.00 0.00 0.00 93 1012.4
20260906114352 74 276 0.0 0.0 0.00 0.00 0.00 93 1012.3
20260906113847 75 276 0.0 0.0 0.00 0.00 0.00 91 1011.9
20260906113346 75 276 0.0 0.0 0.00 0.00 0.00 91 1011.9
20260906112841 75 276 0.0 0.0 0.00 0.00 0.00 91 1011.7
20260906112337 75 276 0.0 0.0 0.00 0.00 0.00 91 1011.7
20260906111832 74 276 0.0 0.0 0.00 0.00 0.00 91 1011.6
20260906111331 75 276 0.0 0.0 0.00 0.00 0.00 92 1011.4
20260906110827 75 276 0.0 0.0 0.00 0.00 0.00 92 1011.5
20260906110323 74 276 0.0 0.0 0.00 0.00 0.00 92 1011.5
20260906105821 75 276 0.0 0.0 0.00 0.00 0.00 93 1011.5
20260906105317 75 276 0.0 0.0 0.00 0.00 0.00 93 1011.6
20260906104813 75 276 0.0 0.0 0.00 0.00 0.00 93 1011.4
20260906104312 75 276 0.0 0.0 0.00 0.00 0.00 93 1011.4
20260906103810 75 276 0.0 0.0 0.00 0.00 0.00 93 1011.2
20260906103309 75 276 0.0 0.0 0.00 0.00 0.00 93 1011.1
20260906102805 75 276 0.0 0.0 0.00 0.00 0.00 93 1011.6
20260906102306 75 276 0.0 0.0 0.00 0.00 0.00 93 1011.4
20260906101759 75 276 0.0 0.0 0.00 0.00 0.00 93 1011.5
20260906101254 75 276 0.0 0.0 0.00 0.00 0.00 93 1011.3
20260906100749 75 276 0.0 0.0 0.00 0.00 0.00 93 1011.2
20260906100248 75 276 0.0 0.0 0.00 0.00 0.00 92 1011.3
20260906095744 76 276 0.0 0.0 0.00 0.00 0.00 92 1011.4
20260906095239 76 276 0.0 0.0 0.00 0.00 0.00 91 1011.4
20260906094738 76 276 0.0 0.0 0.00 0.00 0.00 91 1011.5
20260906094233 76 276 0.0 0.0 0.00 0.00 0.00 91 1011.2
20260906093730 76 276 0.0 0.0 0.00 0.00 0.00 91 1011.3
20260906093225 76 276 0.0 0.0 0.00 0.00 0.00 92 1011.4
20260906092721 76 276 0.0 0.0 0.00 0.00 0.00 92 1011.1
20260906092220 76 276 0.0 0.0 0.00 0.00 0.00 92 1011.4
20260906091716 75 276 0.0 0.0 0.00 0.00 0.00 92 1011.2
20260906091213 75 276 0.0 0.0 0.00 0.00 0.00 92 1011.3
20260906090709 76 276 0.0 0.0 0.00 0.00 0.00 92 1011.2
20260906090208 76 276 0.0 0.0 0.00 0.00 0.00 91 1011.4
20260906085707 76 276 0.0 0.0 0.00 0.00 0.00 91 1011.2
20260906085206 76 276 0.0 0.0 0.00 0.00 0.00 91 1011.2
20260906084701 76 276 0.0 0.0 0.00 0.00 0.00 90 1011.2
20260906084201 76 276 0.0 0.0 0.00 0.00 0.00 90 1011.0
20260906083655 76 276 0.0 0.0 0.00 0.00 0.00 89 1011.1
20260906083151 76 276 0.0 0.0 0.00 0.00 0.00 90 1010.9
20260906082646 76 276 0.0 0.0 0.00 0.00 0.00 90 1011.4
20260906082141 76 275 0.0 0.0 0.00 0.00 0.00 90 1011.2
20260906081637 76 275 0.0 0.0 0.00 0.00 0.00 89 1011.3
20260906081132 76 275 1.0 1.0 0.00 0.00 0.00 90 1011.2
20260906080629 76 272 0.0 0.0 0.00 0.00 0.00 90 1011.3
20260906080125 76 272 0.0 0.0 0.00 0.00 0.00 90 1011.4
20260906075624 76 272 0.0 0.0 0.00 0.00 0.00 90 1011.3
20260906075119 76 231 0.0 1.0 0.00 0.00 0.00 90 1011.2
20260906074614 76 340 0.0 2.0 0.00 0.00 0.00 90 1011.1
20260906074113 76 297 0.0 0.0 0.00 0.00 0.00 90 1011.1
20260906073608 76 297 0.0 0.0 0.00 0.00 0.00 90 1011.2
20260906073104 76 297 0.0 0.0 0.00 0.00 0.00 89 1011.0
20260906072604 76 297 0.0 0.0 0.00 0.00 0.00 90 1011.0
20260906072101 76 297 0.0 0.0 0.00 0.00 0.00 90 1010.8
20260906071557 76 297 0.0 0.0 0.00 0.00 0.00 90 1011.0
20260906071057 76 297 0.0 0.0 0.00 0.00 0.00 90 1010.9
20260906070554 76 297 0.0 0.0 0.00 0.00 0.00 90 1010.9
20260906070049 76 297 0.0 0.0 0.00 0.00 0.00 89 1010.9
20260906065548 76 297 0.0 0.0 0.00 0.00 0.00 89 1010.9
20260906065044 76 297 0.0 0.0 0.00 0.00 0.00 89 1011.0
20260906064540 76 297 0.0 0.0 0.00 0.00 0.00 89 1011.3
20260906064034 76 297 0.0 0.0 0.00 0.00 0.00 89 1010.9
20260906063530 76 297 0.0 0.0 0.00 0.00 0.00 89 1011.1
20260906063026 76 297 0.0 0.0 0.00 0.00 0.00 89 1011.1
20260906062521 76 297 0.0 0.0 0.00 0.00 0.00 89 1011.2
20260906062015 76 297 0.0 0.0 0.00 0.00 0.00 90 1011.3
20260906061511 76 297 0.0 0.0 0.00 0.00 0.00 90 1011.2
20260906061010 76 297 0.0 0.0 0.00 0.00 0.00 89 1011.2
20260906060507 76 297 0.0 0.0 0.00 0.00 0.00 88 1011.5
20260906060004 76 297 0.0 0.0 0.00 0.00 0.00 88 1011.4
20260906055459 76 297 0.0 0.0 0.00 0.00 0.00 89 1011.4
20260906054955 76 297 0.0 0.0 0.00 0.00 0.00 89 1011.6
20260906054454 76 297 0.0 0.0 0.00 0.00 0.00 89 1011.3
20260906053950 76 297 0.0 0.0 0.00 0.00 0.00 88 1011.5
20260906053446 77 297 0.0 0.0 0.00 0.00 0.00 88 1011.2
20260906052942 77 297 0.0 0.0 0.00 0.00 0.00 88 1011.5
20260906052438 77 297 0.0 0.0 0.00 0.00 0.00 88 1011.2
20260906051934 77 297 0.0 0.0 0.00 0.00 0.00 88 1011.4
20260906051430 77 297 0.0 0.0 0.00 0.00 0.00 87 1011.3
20260906050925 77 297 0.0 0.0 0.00 0.00 0.00 87 1011.2
20260906050425 77 297 0.0 0.0 0.00 0.00 0.00 86 1011.1
20260906045924 77 297 0.0 0.0 0.00 0.00 0.00 86 1011.2
20260906045423 77 297 0.0 0.0 0.00 0.00 0.00 87 1011.3
20260906044920 77 297 0.0 0.0 0.00 0.00 0.00 87 1011.2
20260906044420 77 297 0.0 0.0 0.00 0.00 0.00 87 1011.1
20260906043915 77 297 0.0 0.0 0.00 0.00 0.00 87 1011.2
20260906043411 77 297 0.0 0.0 0.00 0.00 0.00 87 1011.1
20260906042906 78 297 0.0 0.0 0.00 0.00 0.00 87 1011.1
20260906042406 78 297 0.0 0.0 0.00 0.00 0.00 86 1011.2
20260906041901 78 297 0.0 0.0 0.00 0.00 0.00 86 1011.0
20260906041357 78 297 0.0 0.0 0.00 0.00 0.00 86 1011.2
20260906040856 78 297 0.0 0.0 0.00 0.00 0.00 86 1011.0
20260906040352 78 297 0.0 0.0 0.00 0.00 0.00 86 1011.1
20260906035847 78 297 0.0 0.0 0.00 0.00 0.00 86 1011.1
20260906035342 78 297 0.0 0.0 0.00 0.00 0.00 85 1011.1
20260906034838 78 297 0.0 0.0 0.00 0.00 0.00 85 1011.1
20260906034333 78 297 0.0 0.0 0.00 0.00 0.00 84 1011.1
20260906033829 78 297 0.0 0.0 0.00 0.00 0.00 84 1011.3
20260906033328 78 297 0.0 0.0 0.00 0.00 0.00 84 1011.2
20260906032824 78 297 0.0 0.0 0.00 0.00 0.00 85 1011.2
20260906032320 78 297 0.0 0.0 0.00 0.00 0.00 85 1011.1
20260906031815 79 297 0.0 0.0 0.00 0.00 0.00 85 1011.2
20260906031310 79 297 0.0 0.0 0.00 0.00 0.00 85 1011.4
20260906030810 79 297 0.0 0.0 0.00 0.00 0.00 85 1011.4
20260906030305 79 297 0.0 0.0 0.00 0.00 0.00 85 1011.2
20260906025805 79 297 0.0 0.0 0.00 0.00 0.00 83 1011.3
20260906025259 79 297 0.0 0.0 0.00 0.00 0.00 83 1011.2
20260906024758 79 297 0.0 0.0 0.00 0.00 0.00 82 1011.2
20260906024257 80 297 0.0 0.0 0.00 0.00 0.00 82 1011.3
20260906023753 80 297 0.0 0.0 0.00 0.00 0.00 82 1011.1
20260906023248 80 297 0.0 0.0 0.00 0.00 0.00 82 1010.9
20260906022744 80 297 0.0 0.0 0.00 0.00 0.00 80 1011.1
20260906022239 80 297 0.0 0.0 0.00 0.00 0.00 81 1011.1
20260906021735 80 297 0.0 0.0 0.00 0.00 0.00 81 1010.9
20260906021234 81 297 0.0 0.0 0.00 0.00 0.00 79 1010.9
20260906020729 81 297 0.0 0.0 0.00 0.00 0.00 78 1010.7
20260906020223 81 297 0.0 0.0 0.00 0.00 0.00 77 1010.7
20260906015723 82 297 0.0 0.0 0.00 0.00 0.00 77 1010.7
20260906015221 82 297 0.0 0.0 0.00 0.00 0.00 78 1010.4
20260906014716 82 297 0.0 0.0 0.00 0.00 0.00 78 1010.6
20260906014213 82 297 0.0 0.0 0.00 0.00 0.00 79 1010.5
20260906013708 82 297 0.0 0.0 0.00 0.00 0.00 79 1010.4
20260906013208 82 297 0.0 0.0 0.00 0.00 0.00 78 1010.4
20260906012703 83 297 0.0 0.0 0.00 0.00 0.00 77 1010.4
20260906012158 83 297 0.0 0.0 0.00 0.00 0.00 75 1010.3
20260906011654 83 297 0.0 0.0 0.00 0.00 0.00 75 1010.3
20260906011154 83 297 0.0 0.0 0.00 0.00 0.00 75 1010.2
20260906010649 83 297 0.0 0.0 0.00 0.00 0.00 75 1010.3
20260906010146 83 297 0.0 0.0 0.00 0.00 0.00 75 1010.2
20260906005645 84 297 0.0 0.0 0.00 0.00 0.00 75 1010.2
20260906005144 85 297 0.0 0.0 0.00 0.00 0.00 73 1010.2
20260906004643 85 297 0.0 0.0 0.00 0.00 0.00 71 1010.3
20260906004138 85 297 0.0 0.0 0.00 0.00 0.00 73 1010.1
20260906003634 85 297 0.0 0.0 0.00 0.00 0.00 71 1010.0
20260906003130 86 297 0.0 0.0 0.00 0.00 0.00 70 1010.0
20260906002624 86 297 0.0 0.0 0.00 0.00 0.00 71 1010.3
20260906002119 87 297 0.0 0.0 0.00 0.00 0.00 68 1010.1
20260906001609 87 297 0.0 0.0 0.00 0.00 0.00 67 1010.0
20260906001108 87 297 0.0 0.0 0.00 0.00 0.00 67 1010.3
20260906000605 88 297 0.0 0.0 0.00 0.00 0.00 69 1010.0
20260906000059 88 297 0.0 0.0 0.00 0.00 0.00 66 1010.2
20260905235559 89 297 0.0 0.0 0.00 0.00 0.00 67 1010.3
20260905235054 90 297 0.0 0.0 0.00 0.00 0.00 67 1010.2
20260905234549 91 297 0.0 0.0 0.00 0.00 0.00 63 1010.2
20260905234044 91 297 0.0 0.0 0.00 0.00 0.00 62 1010.3
20260905233544 92 297 0.0 0.0 0.00 0.00 0.00 59 1010.3
20260905233044 92 297 0.0 0.0 0.00 0.00 0.00 59 1010.2
20260905232540 93 297 0.0 0.0 0.00 0.00 0.00 55 1010.4
20260905232035 94 297 0.0 1.0 0.00 0.00 0.00 53 1010.0
20260905231530 94 297 0.0 1.0 0.00 0.00 0.00 52 1010.2
20260905231026 95 297 0.0 0.0 0.00 0.00 0.00 50 1010.3
20260905230526 95 335 0.0 0.0 0.00 0.00 0.00 48 1010.3
20260905230024 95 335 0.0 0.0 0.00 0.00 0.00 49 1010.5
20260905225519 96 345 0.0 0.0 0.00 0.00 0.00 47 1010.4
20260905225014 96 294 0.0 0.0 0.00 0.00 0.00 46 1010.2
20260905224509 96 349 0.0 1.0 0.00 0.00 0.00 46 1010.3
20260905224008 96 327 0.0 1.0 0.00 0.00 0.00 45 1010.3
20260905223506 96 353 0.0 1.0 0.00 0.00 0.00 45 1010.4
20260905223001 96 18 1.0 2.0 0.00 0.00 0.00 45 1010.2
20260905222501 96 166 0.0 1.0 0.00 0.00 0.00 48 1010.2
20260905221956 96 89 1.0 1.0 0.00 0.00 0.00 47 1010.2
20260905221453 96 250 1.0 4.0 0.00 0.00 0.00 45 1010.3
20260905220949 96 339 0.0 1.0 0.00 0.00 0.00 45 1010.5
20260905220445 96 305 1.0 3.0 0.00 0.00 0.00 45 1010.3
20260905215944 96 3 0.0 3.0 0.00 0.00 0.00 46 1010.2
20260905215440 96 28 1.0 3.0 0.00 0.00 0.00 45 1010.5
20260905214936 96 275 3.0 6.0 0.00 0.00 0.00 44 1010.5
20260905214432 96 324 2.0 3.0 0.00 0.00 0.00 45 1010.4
20260905213931 96 9 1.0 4.0 0.00 0.00 0.00 46 1010.6
20260905213428 96 267 2.0 4.0 0.00 0.00 0.00 45 1010.5
20260905212923 97 335 1.0 3.0 0.00 0.00 0.00 45 1010.5
20260905212418 97 359 2.0 3.0 0.00 0.00 0.00 43 1010.2
20260905211917 98 35 1.0 8.0 0.00 0.00 0.00 43 1010.4
20260905211413 99 284 2.0 3.0 0.00 0.00 0.00 41 1010.3
20260905210909 99 348 2.0 4.0 0.00 0.00 0.00 41 1010.2
20260905210409 100 45 2.0 3.0 0.00 0.00 0.00 40 1010.6
20260905205908 99 20 2.0 6.0 0.00 0.00 0.00 40 1010.4
20260905205403 99 344 3.0 6.0 0.00 0.00 0.00 41 1010.5
20260905204901 99 340 2.0 4.0 0.00 0.00 0.00 40 1010.6
20260905204358 99 329 3.0 4.0 0.00 0.00 0.00 40 1010.6
20260905203856 99 299 2.0 3.0 0.00 0.00 0.00 41 1010.6
20260905203352 99 297 4.0 6.0 0.00 0.00 0.00 39 1010.9
20260905202848 99 23 0.0 2.0 0.00 0.00 0.00 39 1011.0
20260905202349 99 3 2.0 4.0 0.00 0.00 0.00 40 1010.8
20260905201845 99 83 1.0 4.0 0.00 0.00 0.00 40 1011.2
20260905201340 99 28 2.0 3.0 0.00 0.00 0.00 40 1011.3
20260905200839 99 328 4.0 6.0 0.00 0.00 0.00 39 1011.3
20260905200336 100 353 2.0 6.0 0.00 0.00 0.00 40 1011.4
20260905195833 101 350 4.0 8.0 0.00 0.00 0.00 38 1011.3
20260905195329 101 315 2.0 3.0 0.00 0.00 0.00 39 1011.5
20260905194825 99 344 3.0 3.0 0.00 0.00 0.00 40 1011.5
20260905194324 99 188 0.0 2.0 0.00 0.00 0.00 42 1011.7
20260905193823 99 326 1.0 3.0 0.00 0.00 0.00 40 1011.6
20260905193319 100 352 2.0 4.0 0.00 0.00 0.00 40 1011.8
20260905192814 100 1 2.0 7.0 0.00 0.00 0.00 41 1011.7
20260905192310 101 311 3.0 4.0 0.00 0.00 0.00 38 1011.8
20260905191809 101 179 2.0 3.0 0.00 0.00 0.00 38 1012.0
20260905191308 100 17 2.0 4.0 0.00 0.00 0.00 38 1011.9
20260905190807 100 66 3.0 6.0 0.00 0.00 0.00 40 1012.2
20260905190301 100 38 4.0 6.0 0.00 0.00 0.00 38 1012.3
20260905185800 101 8 4.0 6.0 0.00 0.00 0.00 37 1012.0
20260905185255 100 42 1.0 3.0 0.00 0.00 0.00 39 1012.4
20260905184754 100 22 4.0 6.0 0.00 0.00 0.00 41 1012.3
20260905184253 100 27 2.0 4.0 0.00 0.00 0.00 40 1012.4
20260905183753 98 10 0.0 2.0 0.00 0.00 0.00 42 1012.3
20260905183249 99 350 4.0 6.0 0.00 0.00 0.00 41 1012.6
20260905182748 100 334 2.0 4.0 0.00 0.00 0.00 42 1012.6
20260905182247 100 31 2.0 8.0 0.00 0.00 0.00 42 1012.7
20260905181743 100 305 0.0 3.0 0.00 0.00 0.00 44 1012.4
20260905181242 100 324 3.0 3.0 0.00 0.00 0.00 42 1012.7
20260905180737 100 310 2.0 2.0 0.00 0.00 0.00 43 1012.6
20260905180232 99 306 3.0 6.0 0.00 0.00 0.00 40 1012.7
20260905175732 99 14 3.0 7.0 0.00 0.00 0.00 41 1012.8
20260905175227 99 353 2.0 4.0 0.00 0.00 0.00 41 1012.9
20260905174722 99 345 5.0 7.0 0.00 0.00 0.00 41 1013.0
20260905174218 100 64 2.0 2.0 0.00 0.00 0.00 44 1012.9
20260905173714 99 58 0.0 3.0 0.00 0.00 0.00 43 1013.0
20260905173210 99 323 2.0 4.0 0.00 0.00 0.00 45 1013.0
20260905172709 99 21 2.0 3.0 0.00 0.00 0.00 45 1013.2
20260905172209 100 303 1.0 2.0 0.00 0.00 0.00 44 1013.1
20260905171704 100 318 2.0 3.0 0.00 0.00 0.00 44 1013.3
20260905171201 99 70 0.0 3.0 0.00 0.00 0.00 44 1013.4
20260905170658 99 43 3.0 6.0 0.00 0.00 0.00 43 1013.3
20260905170157 98 120 2.0 3.0 0.00 0.00 0.00 48 1013.5
20260905165657 98 348 2.0 7.0 0.00 0.00 0.00 46 1013.5
20260905165152 98 42 2.0 4.0 0.00 0.00 0.00 46 1013.6
20260905164647 98 37 2.0 3.0 0.00 0.00 0.00 46 1013.6
20260905164147 99 33 4.0 6.0 0.00 0.00 0.00 43 1013.7
20260905163643 97 236 1.0 6.0 0.00 0.00 0.00 46 1013.7
20260905163139 97 34 0.0 3.0 0.00 0.00 0.00 48 1013.7
20260905162635 97 325 2.0 3.0 0.00 0.00 0.00 49 1013.7
20260905162135 97 297 2.0 2.0 0.00 0.00 0.00 49 1013.7
20260905161634 96 64 2.0 4.0 0.00 0.00 0.00 49 1013.9
20260905161132 96 292 3.0 6.0 0.00 0.00 0.00 48 1013.9
20260905160627 97 356 3.0 6.0 0.00 0.00 0.00 49 1013.9
20260905160127 96 47 2.0 3.0 0.00 0.00 0.00 51 1013.9
20260905155626 96 305 1.0 3.0 0.00 0.00 0.00 50 1014.0
20260905155125 96 21 1.0 3.0 0.00 0.00 0.00 51 1014.0
20260905154620 96 109 2.0 2.0 0.00 0.00 0.00 53 1014.0
20260905154116 96 317 2.0 3.0 0.00 0.00 0.00 52 1014.0
20260905153611 96 107 0.0 1.0 0.00 0.00 0.00 56 1013.9
20260905153106 96 70 0.0 2.0 0.00 0.00 0.00 54 1014.0
20260905152601 95 105 1.0 1.0 0.00 0.00 0.00 54 1013.9
20260905152056 94 296 0.0 1.0 0.00 0.00 0.00 59 1013.9
20260905151551 95 310 1.0 3.0 0.00 0.00 0.00 55 1013.9
20260905151046 95 339 1.0 3.0 0.00 0.00 0.00 56 1013.9
20260905150541 94 312 1.0 1.0 0.00 0.00 0.00 55 1014.2
20260905150040 94 3 0.0 3.0 0.00 0.00 0.00 56 1014.1
20260905145538 94 57 0.0 3.0 0.00 0.00 0.00 56 1013.8
20260905145038 94 266 0.0 1.0 0.00 0.00 0.00 55 1014.2
20260905144533 93 241 0.0 1.0 0.00 0.00 0.00 58 1014.0
20260905144032 92 43 1.0 2.0 0.00 0.00 0.00 56 1013.9
20260905143531 93 297 1.0 1.0 0.00 0.00 0.00 57 1014.0
20260905143027 91 28 0.0 1.0 0.00 0.00 0.00 62 1013.8
20260905142525 91 277 0.0 1.0 0.00 0.00 0.00 63 1013.9
20260905142021 90 308 0.0 1.0 0.00 0.00 0.00 63 1013.7
20260905141515 89 308 0.0 1.0 0.00 0.00 0.00 67 1013.7
20260905141012 89 332 2.0 2.0 0.00 0.00 0.00 65 1013.8
20260905140506 89 322 0.0 1.0 0.00 0.00 0.00 66 1014.1
20260905140005 89 326 0.0 1.0 0.00 0.00 0.00 67 1013.8
20260905135501 88 136 0.0 0.0 0.00 0.00 0.00 67 1013.7
20260905134956 86 137 0.0 0.0 0.00 0.00 0.00 70 1013.9
20260905134455 86 135 0.0 0.0 0.00 0.00 0.00 69 1013.9
20260905133955 85 170 0.0 0.0 0.00 0.00 0.00 72 1013.9
20260905133450 84 146 0.0 0.0 0.00 0.00 0.00 73 1013.9
20260905132949 84 138 0.0 0.0 0.00 0.00 0.00 75 1014.0
20260905132444 84 242 0.0 0.0 0.00 0.00 0.00 75 1013.8
20260905131939 84 301 0.0 0.0 0.00 0.00 0.00 74 1013.9
20260905131435 83 301 0.0 0.0 0.00 0.00 0.00 76 1013.8
20260905130930 83 288 0.0 0.0 0.00 0.00 0.00 78 1013.8
20260905130429 82 288 0.0 0.0 0.00 0.00 0.00 79 1013.8
20260905125929 81 287 0.0 0.0 0.00 0.00 0.00 81 1013.6
20260905125424 80 288 0.0 0.0 0.00 0.00 0.00 82 1013.6